This is the latest recevied weather packets stored in our database for station/object KI5NXU. If no packets are shown the sender has not sent any weather packets the latest 10 day(s).
| Time | Temp. | Humidity | Pressure | Rain* | Wind** | Luminosity | Snow |
|---|---|---|---|---|---|---|---|
| 1778099061 | 20° C | 60% | 1013.3 hPa | 0 mm | - | 550 W/m² | - |
| 1778098757 | 20° C | 60% | 1013.2 hPa | 0 mm | - | 571 W/m² | - |
| 1778098455 | 19.44° C | 62% | 1013.4 hPa | 0 mm | - | 558 W/m² | - |
| 1778098151 | 20° C | 61% | 1013.3 hPa | 0 mm | - | 513 W/m² | - |
| 1778097847 | 18.89° C | 62% | 1013.4 hPa | 0 mm | - | 472 W/m² | - |
| 1778097544 | 18.89° C | 61% | 1013.7 hPa | 0 mm | - | 531 W/m² | - |
| 1778097242 | 19.44° C | 62% | 1013.4 hPa | 0 mm | - | 506 W/m² | - |
| 1778096938 | 19.44° C | 62% | 1013.6 hPa | 0 mm | - | 669 W/m² | - |
| 1778096634 | 20° C | 60% | 1013.6 hPa | 0 mm | - | 678 W/m² | - |
| 1778096332 | 19.44° C | 61% | 1013.7 hPa | 0 mm | - | 633 W/m² | - |
| 1778096029 | 20° C | 58% | 1013.6 hPa | 0 mm | - | 743 W/m² | - |
| 1778095725 | 20° C | 60% | 1013.7 hPa | 0 mm | - | 695 W/m² | - |
| 1778095422 | 20° C | 60% | 1013.3 hPa | 0 mm | - | 530 W/m² | - |
| 1778095119 | 18.33° C | 64% | 1013.4 hPa | 0 mm | - | 581 W/m² | - |
| 1778094815 | 18.89° C | 61% | 1013.6 hPa | 0 mm | - | 629 W/m² | - |
| 1778094513 | 18.33° C | 63% | 1013.4 hPa | 0 mm | - | 569 W/m² | - |
| 1778094209 | 18.33° C | 63% | 1013.8 hPa | 0 mm | - | 628 W/m² | - |
| 1778093906 | 17.78° C | 63% | 1013.6 hPa | 0 mm | - | 678 W/m² | - |
| 1778093603 | 17.78° C | 64% | 1013.9 hPa | 0 mm | - | 604 W/m² | - |
| 1778093300 | 17.78° C | 63% | 1014 hPa | 0 mm | - | 737 W/m² | - |
| 1778092997 | 17.78° C | 63% | 1014 hPa | 0 mm | - | 689 W/m² | - |
| 1778092694 | 18.33° C | 61% | 1014.2 hPa | 0 mm | - | 731 W/m² | - |
| 1778092389 | 17.78° C | 65% | 1013.9 hPa | 0 mm | - | 630 W/m² | - |
| 1778092087 | 17.78° C | 63% | 1013.7 hPa | 0 mm | - | 744 W/m² | - |
| 1778091783 | 17.22° C | 66% | 1013.9 hPa | 0 mm | - | 555 W/m² | - |
* Rain latest hour (hover to see other rain measurements)
** Current wind speed in m/s (hover to see current wind gust speed)